Terminal Aerodrome Forecast
Issued by NWS

Home | Current Version | Previous Version | Text Only | Print | Product List | Glossary On
Versions: 1 2 3 4 5 6 7 8 9 10 11 12 13
000
FTUS41 KBTV 190500
TAFRUT
TAF
KRUT 190522Z 1906/2006 VRB03KT P6SM VCSH BKN040
     FM190900 VRB03KT P6SM BKN040
     FM191400 32014G25KT P6SM SCT040
     FM200000 VRB04KT P6SM SKC
      AMD LTD TO CLD VIS AND WIND=

USA.gov is the U.S. government's official web portal to all federal, state and local government web resources and services.